TimeMDT,TemperatureF,Dew PointF,Humidity,Sea Level PressureIn,VisibilityMPH,Wind Direction,Wind SpeedMPH,Gust SpeedMPH,PrecipitationIn,Events,Conditions,WindDirDegrees,DateUTC
12:13 AM,41.5,20.5,43,29.94,10.0,Calm,Calm,-,N/A,,Clear,0,2012-10-22 06:13:00
12:33 AM,40.8,21.0,45,29.95,10.0,Calm,Calm,-,N/A,,Clear,0,2012-10-22 06:33:00
12:53 AM,39.2,21.7,50,29.95,10.0,Calm,Calm,-,N/A,,Clear,0,2012-10-22 06:53:00
1:13 AM,41.7,21.0,44,29.95,10.0,Calm,Calm,-,N/A,,Clear,0,2012-10-22 07:13:00
1:33 AM,39.9,21.9,49,29.95,10.0,Calm,Calm,-,N/A,,Mostly Cloudy,0,2012-10-22 07:33:00
1:53 AM,40.8,22.1,47,29.94,10.0,Calm,Calm,-,N/A,,Overcast,0,2012-10-22 07:53:00
2:13 AM,38.1,23.9,57,29.94,10.0,Calm,Calm,-,N/A,,Overcast,0,2012-10-22 08:13:00
2:53 AM,38.3,24.1,57,29.94,10.0,Calm,Calm,-,N/A,,Overcast,0,2012-10-22 08:53:00
3:13 AM,36.9,24.4,61,29.94,10.0,NW,4.6,-,N/A,,Scattered Clouds,310,2012-10-22 09:13:00
3:33 AM,37.4,23.7,58,29.94,10.0,Calm,Calm,-,N/A,,Clear,0,2012-10-22 09:33:00
3:53 AM,37.6,23.9,58,29.94,10.0,Calm,Calm,-,N/A,,Scattered Clouds,0,2012-10-22 09:53:00
4:13 AM,34.9,25.2,68,29.93,10.0,East,3.5,-,N/A,,Mostly Cloudy,80,2012-10-22 10:13:00
4:33 AM,39.0,23.7,54,29.92,10.0,Calm,Calm,-,N/A,,Mostly Cloudy,0,2012-10-22 10:33:00
4:53 AM,37.2,24.8,61,29.92,10.0,Calm,Calm,-,N/A,,Overcast,0,2012-10-22 10:53:00
5:13 AM,39.0,24.6,56,29.92,10.0,Calm,Calm,-,N/A,,Overcast,0,2012-10-22 11:13:00
5:33 AM,38.5,25.2,59,29.92,10.0,North,3.5,-,N/A,,Overcast,360,2012-10-22 11:33:00
5:53 AM,38.3,25.5,60,29.92,10.0,Calm,Calm,-,N/A,,Overcast,0,2012-10-22 11:53:00
6:13 AM,39.4,25.2,57,29.93,10.0,Calm,Calm,-,N/A,,Overcast,0,2012-10-22 12:13:00
6:33 AM,37.0,26.1,65,29.93,10.0,Calm,Calm,-,N/A,,Overcast,0,2012-10-22 12:33:00
6:53 AM,38.7,25.7,60,29.94,10.0,Calm,Calm,-,N/A,,Overcast,0,2012-10-22 12:53:00
7:13 AM,38.8,26.1,60,29.94,10.0,Calm,Calm,-,N/A,,Overcast,0,2012-10-22 13:13:00
7:33 AM,38.5,26.1,61,29.94,10.0,Calm,Calm,-,N/A,,Overcast,0,2012-10-22 13:33:00
7:53 AM,38.3,26.4,62,29.94,10.0,Calm,Calm,-,N/A,,Overcast,0,2012-10-22 13:53:00
8:13 AM,40.1,25.7,56,29.94,10.0,Calm,Calm,-,N/A,,Scattered Clouds,0,2012-10-22 14:13:00
8:33 AM,40.8,25.0,53,29.94,10.0,Calm,Calm,-,N/A,,Clear,0,2012-10-22 14:33:00
8:53 AM,42.1,24.6,50,29.94,10.0,Calm,Calm,-,N/A,,Clear,0,2012-10-22 14:53:00
9:13 AM,44.1,25.9,49,29.94,10.0,Calm,Calm,-,N/A,,Clear,0,2012-10-22 15:13:00
9:33 AM,48.9,27.1,43,29.94,10.0,Calm,Calm,-,N/A,,Clear,0,2012-10-22 15:33:00
9:53 AM,54.5,26.2,34,29.93,10.0,ESE,4.6,-,N/A,,Clear,110,2012-10-22 15:53:00
10:13 AM,57.7,26.4,30,29.92,10.0,ESE,6.9,-,N/A,,Clear,120,2012-10-22 16:13:00
10:33 AM,59.7,25.5,27,29.91,10.0,SE,6.9,-,N/A,,Clear,130,2012-10-22 16:33:00
10:53 AM,59.4,24.8,27,29.90,10.0,SSW,5.8,-,N/A,,Clear,200,2012-10-22 16:53:00
11:13 AM,61.0,24.4,25,29.89,10.0,SSE,12.7,18.4,N/A,,Mostly Cloudy,150,2012-10-22 17:13:00
11:33 AM,63.1,22.6,21,29.88,10.0,SE,18.4,27.6,N/A,,Overcast,140,2012-10-22 17:33:00
11:53 AM,63.1,21.6,20,29.87,10.0,South,12.7,24.2,N/A,,Mostly Cloudy,170,2012-10-22 17:53:00
12:13 PM,64.2,20.8,19,29.87,10.0,South,13.8,20.7,N/A,,Mostly Cloudy,170,2012-10-22 18:13:00
12:33 PM,62.6,19.9,19,29.86,10.0,South,6.9,18.4,N/A,,Mostly Cloudy,170,2012-10-22 18:33:00
12:53 PM,64.9,18.7,17,29.85,10.0,ESE,15.0,18.4,N/A,,Mostly Cloudy,120,2012-10-22 18:53:00
1:13 PM,66.9,15.3,14,29.84,10.0,SW,11.5,17.3,N/A,,Scattered Clouds,230,2012-10-22 19:13:00
1:33 PM,67.1,11.8,12,29.83,10.0,SW,13.8,24.2,N/A,,Scattered Clouds,220,2012-10-22 19:33:00
1:53 PM,68.2,10.8,11,29.82,10.0,WSW,20.7,28.8,N/A,,Clear,240,2012-10-22 19:53:00
2:13 PM,64.4,13.5,14,29.82,10.0,SW,13.8,23.0,N/A,,Scattered Clouds,230,2012-10-22 20:13:00
2:33 PM,66.6,12.6,12,29.81,10.0,SSW,16.1,25.3,N/A,,Scattered Clouds,210,2012-10-22 20:33:00
2:53 PM,67.6,12.7,12,29.81,10.0,SW,17.3,26.5,N/A,,Mostly Cloudy,220,2012-10-22 20:53:00
3:13 PM,65.8,15.1,14,29.81,10.0,WSW,20.7,26.5,N/A,,Mostly Cloudy,240,2012-10-22 21:13:00
3:33 PM,64.2,16.0,15,29.81,10.0,WSW,16.1,25.3,N/A,,Scattered Clouds,240,2012-10-22 21:33:00
3:53 PM,65.5,15.1,14,29.81,10.0,WSW,17.3,23.0,N/A,,Scattered Clouds,250,2012-10-22 21:53:00
4:13 PM,66.2,14.7,14,29.81,10.0,WSW,15.0,24.2,N/A,,Scattered Clouds,240,2012-10-22 22:13:00
4:33 PM,65.3,15.8,15,29.81,10.0,WSW,20.7,25.3,N/A,,Mostly Cloudy,240,2012-10-22 22:33:00
4:53 PM,64.8,16.9,16,29.82,10.0,WSW,12.7,25.3,N/A,,Overcast,250,2012-10-22 22:53:00
5:13 PM,63.9,18.5,17,29.82,10.0,WSW,13.8,20.7,N/A,,Overcast,250,2012-10-22 23:13:00
5:33 PM,63.1,18.5,18,29.83,10.0,WSW,12.7,19.6,N/A,,Overcast,240,2012-10-22 23:33:00
5:53 PM,61.7,18.7,19,29.83,10.0,WSW,9.2,17.3,N/A,,Overcast,240,2012-10-22 23:53:00
6:13 PM,59.7,19.4,21,29.83,10.0,SW,9.2,-,N/A,,Mostly Cloudy,230,2012-10-23 00:13:00
6:33 PM,57.6,19.4,23,29.83,10.0,WSW,4.6,-,N/A,,Scattered Clouds,250,2012-10-23 00:33:00
6:53 PM,56.5,20.1,24,29.84,10.0,Calm,Calm,-,N/A,,Scattered Clouds,0,2012-10-23 00:53:00
7:13 PM,55.2,20.3,26,29.84,10.0,Calm,Calm,-,N/A,,Scattered Clouds,0,2012-10-23 01:13:00
7:33 PM,55.4,20.1,25,29.84,10.0,Calm,Calm,-,N/A,,Scattered Clouds,0,2012-10-23 01:33:00
7:53 PM,54.3,20.5,27,29.85,10.0,Calm,Calm,-,N/A,,Mostly Cloudy,0,2012-10-23 01:53:00
8:13 PM,53.8,21.6,28,29.84,10.0,SSW,5.8,-,N/A,,Scattered Clouds,200,2012-10-23 02:13:00
8:33 PM,52.9,21.9,30,29.84,10.0,Calm,Calm,-,N/A,,Clear,0,2012-10-23 02:33:00
8:53 PM,52.5,22.1,31,29.84,10.0,Calm,Calm,-,N/A,,Clear,0,2012-10-23 02:53:00
9:13 PM,54.1,21.6,28,29.84,10.0,SSE,9.2,-,N/A,,Clear,150,2012-10-23 03:13:00
9:33 PM,54.5,21.2,27,29.85,10.0,SSE,6.9,-,N/A,,Clear,160,2012-10-23 03:33:00
9:53 PM,50.4,23.0,34,29.85,10.0,Calm,Calm,-,N/A,,Scattered Clouds,0,2012-10-23 03:53:00
10:13 PM,49.8,23.7,36,29.85,10.0,Calm,Calm,-,N/A,,Overcast,0,2012-10-23 04:13:00
10:33 PM,50.9,22.5,33,29.85,10.0,Calm,Calm,-,N/A,,Mostly Cloudy,0,2012-10-23 04:33:00
11:13 PM,50.2,22.8,34,29.85,10.0,Calm,Calm,-,N/A,,Scattered Clouds,0,2012-10-23 05:13:00
11:33 PM,49.5,23.2,36,29.85,10.0,Calm,Calm,-,N/A,,Scattered Clouds,0,2012-10-23 05:33:00
11:53 PM,50.2,22.6,34,29.85,10.0,East,3.5,-,N/A,,Clear,80,2012-10-23 05:53:00